[[{"header":{"parameterUnit":"m.s-1","parameterCategory":1,"la1":30.2991,"la2":30.254,"lo1":-89.0895,"lo2":-89.0444,"dy":0.0017,"dx":0.0017,"nx":28,"ny":28,"refTime":"2024-05-21T03:00:00:Z","depth":0,"parameterNumber":2,"parameterNumberName":"U-component_of_WINDS"},"data":[0,0,0,0,0,0,0,0,0,0,0,0,0,0,0,0,0,0,0,0,0,0,0,0,0,0,0,0,0,0,0,0,0,0,0,0,0,0,0,0,0,0,0,0,0,0,0,0,0,0,0,0,0,0,0,0,0,0,-2.7675,-2.7675,0,-2.7696,-2.7697,-2.7697,-2.7671,-2.767,-2.7669,-2.7669,-2.7691,-2.7692,-2.7694,0,0,0,0,0,0,0,0,0,0,0,0,0,-2.7612,-2.7614,-2.7675,-2.7675,-2.7675,-2.7696,-2.7697,-2.7697,-2.7671,-2.767,-2.7669,-2.7668,-2.769,-2.7692,-2.7694,0,0,0,0,0,0,0,0,0,0,0,0,0,-2.7637,-2.7614,-2.7675,-2.7665,-2.7664,-2.7696,-2.7697,-2.7697,-2.7672,-2.767,-2.7669,-2.7668,-2.769,-2.7692,-2.7694,-2.7736,0,0,-2.7701,-2.7702,0,0,0,0,0,0,0,0,-2.7636,-2.764,-2.7666,-2.7666,-2.7665,-2.768,-2.7683,-2.771,-2.7672,-2.7669,-2.7668,-2.7667,-2.7688,-2.769,-2.7698,-2.7737,-2.7738,-2.7701,-2.7702,-2.7703,-2.7704,0,0,0,0,0,0,0,-2.7634,-2.7638,-2.7683,-2.7667,-2.7666,-2.766,-2.7662,-2.7688,-2.7686,-2.7669,-2.7667,-2.767,-2.7688,-2.7696,-2.7698,-2.7739,-2.7701,-2.7703,-2.7704,-2.7705,-2.7815,-2.7816,0,0,0,0,0,0,-2.7633,-2.7637,-2.7682,-2.7684,-2.7647,-2.7662,-2.7664,-2.7676,-2.7686,-2.7686,-2.7671,-2.7669,-2.7693,-2.7695,-2.7699,-2.7749,-2.7703,-2.7705,-2.7707,-2.7813,-2.7815,-2.7817,0,0,0,0,0,0,-2.7632,-2.7638,-2.7682,-2.766,-2.7665,-2.7665,-2.7678,-2.7678,-2.7685,-2.7688,-2.7687,-2.768,-2.7692,-2.7696,-2.7727,-2.7749,-2.7706,-2.7708,-2.7811,-2.7814,-2.7816,-2.7849,0,0,0,0,0,0,-2.7631,-2.7637,-2.7653,-2.7661,-2.7666,-2.7709,-2.768,-2.7679,-2.7689,-2.7686,-2.7695,-2.7696,-2.7691,-2.7724,-2.7729,-2.7751,-2.771,-2.7809,-2.7812,-2.7815,-2.7846,-2.7852,-2.7857,0,0,0,0,0,-2.7628,-2.7661,-2.7654,-2.766,-2.7686,-2.7711,-2.7714,-2.7708,-2.7691,-2.7707,-2.7709,-2.7695,-2.7746,-2.7728,-2.7733,-2.7756,-2.7808,-2.7811,-2.7815,-2.7843,-2.7851,-2.7857,0,0,0,0,0,0,-2.7656,-2.7662,-2.7654,-2.769,-2.77,-2.7706,-2.7726,-2.7716,-2.7731,-2.7727,-2.7719,-2.7722,-2.7755,-2.7759,-2.7738,-2.7798,-2.7774,-2.7779,-2.7794,-2.7801,-2.7807,-2.7805,-2.7712,0,0,0,0,0,-2.7667,-2.7686,-2.769,-2.7722,-2.7728,-2.7726,-2.7737,-2.7731,-2.7741,-2.7745,-2.7749,-2.7759,-2.7778,-2.779,-2.7807,-2.7847,-2.7849,-2.7866,-2.7872,-2.7876,-2.788,-2.7902,-2.7909,-2.7828,-2.7828,-2.7828,0,0,-2.7688,-2.7694,-2.7707,-2.7728,-2.7735,-2.7756,-2.773,-2.7753,-2.7768,-2.7749,-2.7778,-2.7782,-2.7793,-2.7829,-2.7845,-2.7833,-2.7903,-2.7881,-2.7885,-2.7886,-2.7906,-2.7914,-2.7921,-2.7831,-2.783,-2.783,0,0,-2.7738,-2.7744,-2.7771,-2.7779,-2.779,-2.7789,-2.7796,-2.7804,-2.7806,-2.7836,-2.7822,-2.7841,-2.7872,-2.7881,-2.7889,-2.7944,-2.7932,-2.795,-2.798,-2.8001,-2.8007,-2.8013,-2.8032,-2.8039,-2.7954,-2.7954,-2.7954,0,-2.7763,-2.7793,-2.7787,-2.7811,-2.782,-2.7805,-2.7833,-2.7841,-2.7857,-2.7864,-2.7851,-2.7891,-2.7897,-2.7935,-2.7949,-2.7956,-2.7964,-2.7948,-2.8007,-2.8012,-2.8018,-2.8036,-2.8043,-2.7956,-2.7956,-2.7956,-2.7956,0,-2.7824,-2.7845,-2.7866,-2.7882,-2.7894,-2.792,-2.7918,-2.7931,-2.7925,-2.7926,-2.7957,-2.7965,-2.7983,-2.7992,-2.7986,-2.803,-2.8022,-2.8008,-2.7984,-2.8027,-2.8044,-2.8051,-2.7959,-2.7958,-2.7958,-2.7957,0,0,-2.789,-2.7903,-2.7911,-2.7918,-2.793,-2.7946,-2.7972,-2.799,-2.8001,-2.8014,-2.8035,-2.8063,-2.805,-2.806,-2.8056,-2.8074,-2.8117,-2.8058,-2.8058,-2.8068,-2.8165,-2.8174,-2.8183,-2.811,-2.8111,-2.8112,-2.8164,0,-2.7939,-2.7983,-2.7978,-2.802,-2.804,-2.8026,-2.8048,-2.8058,-2.806,-2.8077,-2.8079,-2.8099,-2.8081,-2.8087,-2.8105,-2.8108,-2.8136,-2.8104,-2.8129,-2.813,-2.8125,-2.8191,-2.8201,-2.825,-2.817,-2.8172,-2.8172,0,-2.8002,-2.8017,-2.806,-2.807,-2.8078,-2.8098,-2.8114,-2.8131,-2.8142,-2.8142,-2.8154,-2.8146,-2.8173,-2.8149,-2.8185,-2.8163,-2.8174,-2.8177,-2.8179,-2.818,-2.8153,-2.8193,-2.8265,-2.8272,-2.8183,-2.8182,-2.8181,0,-2.8046,-2.8076,-2.8106,-2.8113,-2.8125,-2.8139,-2.8145,-2.8155,-2.8166,-2.8181,-2.8188,-2.8206,-2.8216,-2.823,-2.8228,-2.8211,-2.8264,-2.8241,-2.8265,-2.8265,-2.8276,-2.8275,-2.8349,-2.8284,-2.8284,-2.8284,-2.8284,0,-2.8101,-2.8128,-2.8126,-2.8144,-2.8174,-2.8169,-2.82,-2.8204,-2.8213,-2.8232,-2.8222,-2.824,-2.8236,-2.8255,-2.8253,-2.8283,-2.8288,-2.8289,-2.8288,-2.8289,-2.8289,-2.8295,-2.8291,-2.8286,-2.8285,-2.8285,-2.8285,0,-2.8153,-2.8153,-2.8185,-2.8194,-2.8197,-2.8219,-2.8226,-2.8244,-2.8245,-2.827,-2.8275,-2.8278,-2.8299,-2.8299,-2.8323,-2.8322,-2.8359,-2.8354,-2.8355,-2.8353,-2.8377,-2.8375,-2.8457,-2.8467,-2.8397,-2.8397,-2.8398,0,-2.8188,-2.8208,-2.822,-2.8232,-2.8238,-2.8258,-2.827,-2.8266,-2.8279,-2.8294,-2.831,-2.833,-2.8346,-2.8381,-2.8385,-2.8404,-2.8399,-2.8427,-2.8402,-2.8403,-2.8399,-2.8397,-2.8399,-2.8431,-2.8432,-2.8433,-2.8433,0,-2.8249,-2.8248,-2.8265,-2.8283,-2.8297,-2.8311,-2.8323,-2.8334,-2.8332,-2.8347,-2.8368,-2.8381,-2.8406,-2.8426,-2.8445,-2.8451,-2.8442,-2.8441,-2.8448,-2.8449,-2.8448,-2.8448,-2.8367,-2.8439,-2.8438,-2.8438,-2.8438,-2.8437,-2.8294,-2.8311,-2.8322,-2.8342,-2.8351,-2.8363,-2.838,-2.8384,-2.8401,-2.8421,-2.8419,-2.8443,-2.8454,-2.8478,-2.8486,-2.8505,-2.8495,-2.8505,-2.8507,-2.8509,-2.8512,-2.8446,-2.8509,-2.8508,-2.8508,-2.8508,-2.8508,0,-2.8354,-2.836,-2.8379,-2.8396,-2.8412,-2.8403,-2.8416,-2.843,-2.8451,-2.8463,-2.8479,-2.8504,-2.8524,-2.853,-2.855,-2.8564,-2.856,-2.8569,-2.8567,-2.8569,-2.852,-2.8512,-2.8572,-2.8572,-2.8572,-2.8572,-2.8572,-2.8572,-2.8387,-2.8416,-2.8417,-2.8451,-2.8457,-2.8481,-2.8489,-2.8501,-2.851,-2.8538,-2.8555,-2.8559,-2.8568,-2.8589,-2.8607,-2.8608,-2.8615,-2.8626,-2.8625,-2.8579,-2.8572,-2.8566,-2.8559,-2.8628,-2.8628,-2.8673,-2.8674,-2.8674]},{"header":{"parameterUnit":"m.s-1","parameterCategory":1,"la1":30.2991,"la2":30.254,"lo1":-89.0895,"lo2":-89.0444,"dy":0.0017,"dx":0.0017,"nx":28,"ny":28,"refTime":"2024-05-21T03:00:00:Z","depth":0,"parameterNumber":3,"parameterNumberName":"V-component_of_WINDS"},"data":[0,0,0,0,0,0,0,0,0,0,0,0,0,0,0,0,0,0,0,0,0,0,0,0,0,0,0,0,0,0,0,0,0,0,0,0,0,0,0,0,0,0,0,0,0,0,0,0,0,0,0,0,0,0,0,0,0,0,3.0673,3.0673,0,3.0729,3.073,3.0731,3.0762,3.0762,3.0762,3.0762,3.0816,3.0817,3.0819,0,0,0,0,0,0,0,0,0,0,0,0,0,3.0588,3.0589,3.0672,3.0673,3.0674,3.0729,3.073,3.0731,3.0762,3.0762,3.0762,3.0762,3.0816,3.0817,3.0819,0,0,0,0,0,0,0,0,0,0,0,0,0,3.0632,3.059,3.0672,3.0696,3.0699,3.0729,3.073,3.0731,3.0762,3.0762,3.0762,3.0762,3.0815,3.0817,3.0819,3.0829,0,0,3.0825,3.0826,0,0,0,0,0,0,0,0,3.063,3.0636,3.0692,3.0695,3.0698,3.0739,3.072,3.0764,3.0762,3.0738,3.0762,3.0762,3.079,3.0794,3.0804,3.0831,3.0833,3.0825,3.0827,3.0827,3.0828,0,0,0,0,0,0,0,3.0627,3.0633,3.0695,3.0693,3.0696,3.0703,3.071,3.0728,3.0762,3.074,3.0742,3.0749,3.0791,3.0802,3.0806,3.0834,3.0825,3.0827,3.0828,3.0829,3.0874,3.0874,0,0,0,0,0,0,3.062,3.063,3.0693,3.0697,3.0664,3.0704,3.0712,3.0725,3.0762,3.0768,3.0749,3.075,3.0799,3.0803,3.0808,3.0823,3.0827,3.0829,3.083,3.0874,3.0874,3.0874,0,0,0,0,0,0,3.0618,3.0626,3.0691,3.0664,3.0673,3.0706,3.0721,3.0726,3.0737,3.0769,3.0775,3.0754,3.0799,3.0805,3.0824,3.0825,3.083,3.0832,3.0874,3.0874,3.0874,3.0851,0,0,0,0,0,0,3.0616,3.0625,3.0629,3.0664,3.0674,3.0707,3.0721,3.0727,3.0741,3.0744,3.0775,3.078,3.08,3.0821,3.0826,3.0828,3.0834,3.0874,3.0874,3.0874,3.0852,3.0851,3.0849,0,0,0,0,0,3.0613,3.0619,3.0629,3.0637,3.0681,3.0707,3.0712,3.0736,3.0741,3.0746,3.0766,3.0779,3.0824,3.0822,3.0828,3.0831,3.0874,3.0874,3.0874,3.0853,3.0851,3.0849,0,0,0,0,0,0,3.0582,3.0624,3.0636,3.0654,3.0677,3.0712,3.0718,3.0733,3.0753,3.0754,3.0781,3.0788,3.0804,3.0819,3.0817,3.0843,3.085,3.0851,3.0832,3.0831,3.0829,3.0825,3.0835,0,0,0,0,0,3.0577,3.0596,3.0632,3.0645,3.0656,3.0685,3.0697,3.0713,3.0737,3.0746,3.0768,3.079,3.0809,3.0821,3.084,3.0855,3.0862,3.086,3.0858,3.0857,3.0857,3.0867,3.0867,3.0873,3.0873,3.0873,0,0,3.0568,3.0594,3.0603,3.0639,3.0659,3.0676,3.0693,3.071,3.0724,3.0749,3.0769,3.0785,3.0811,3.0829,3.0837,3.0842,3.0857,3.0857,3.0855,3.0857,3.0867,3.0867,3.0866,3.0873,3.0873,3.0873,0,0,3.056,3.0581,3.0595,3.0615,3.0645,3.0665,3.0668,3.0702,3.0714,3.0735,3.0755,3.077,3.0802,3.0821,3.0834,3.0835,3.0848,3.0841,3.0833,3.0842,3.0842,3.0842,3.0843,3.0843,3.0841,3.0841,3.0841,0,3.0544,3.0573,3.06,3.0618,3.0633,3.0658,3.0672,3.069,3.0723,3.0733,3.0738,3.078,3.0799,3.0822,3.0823,3.0832,3.0837,3.0837,3.084,3.084,3.084,3.0841,3.0842,3.084,3.084,3.084,3.084,0,3.0552,3.0572,3.0579,3.0614,3.063,3.0646,3.0674,3.0687,3.0703,3.0722,3.0743,3.0767,3.0793,3.0799,3.0813,3.0824,3.0826,3.0835,3.0843,3.0838,3.084,3.084,3.0838,3.0839,3.0839,3.0839,0,0,3.0525,3.0576,3.0578,3.0595,3.0631,3.0646,3.0663,3.069,3.0701,3.0724,3.0738,3.0766,3.0775,3.0791,3.0807,3.0815,3.0816,3.0824,3.0825,3.0822,3.083,3.0823,3.0824,3.0825,3.0825,3.0825,3.0828,0,3.0522,3.0556,3.0581,3.0604,3.0623,3.0649,3.0663,3.0687,3.0705,3.0724,3.0744,3.0763,3.0774,3.0783,3.0793,3.0814,3.0818,3.0814,3.0838,3.0839,3.0831,3.0824,3.0817,3.0818,3.0829,3.0829,3.0829,0,3.0524,3.0548,3.0574,3.061,3.0619,3.0632,3.0659,3.0676,3.0703,3.0716,3.0734,3.0752,3.0771,3.0777,3.0803,3.08,3.0812,3.0824,3.0824,3.0827,3.0834,3.0827,3.0819,3.082,3.083,3.083,3.083,0,3.0502,3.0541,3.0562,3.0576,3.0618,3.0626,3.0644,3.0671,3.0686,3.071,3.072,3.0744,3.0757,3.0776,3.0799,3.0802,3.0823,3.0831,3.0834,3.0834,3.0837,3.0837,3.0831,3.0844,3.0844,3.0844,3.0844,0,3.0497,3.0511,3.0554,3.0566,3.0584,3.0613,3.0629,3.0648,3.0673,3.069,3.0712,3.0727,3.0758,3.0776,3.0795,3.0814,3.0819,3.083,3.0835,3.0828,3.0827,3.0836,3.0836,3.0844,3.0844,3.0844,3.0844,0,3.0475,3.0504,3.0529,3.0567,3.0577,3.0589,3.0621,3.0634,3.0655,3.0676,3.0682,3.0714,3.0738,3.0764,3.0794,3.0807,3.0825,3.0832,3.0816,3.0819,3.0821,3.082,3.0821,3.0823,3.0834,3.0834,3.0834,0,3.047,3.0482,3.0523,3.0537,3.0555,3.0576,3.0592,3.0621,3.0637,3.067,3.0679,3.0704,3.0726,3.0762,3.0787,3.0811,3.0819,3.0817,3.0822,3.0816,3.0819,3.0818,3.082,3.0816,3.0815,3.0815,3.0815,0,3.0458,3.0472,3.0495,3.0524,3.0543,3.0566,3.059,3.06,3.0634,3.065,3.0675,3.0692,3.0725,3.075,3.0778,3.0795,3.081,3.0814,3.0816,3.0809,3.08,3.0805,3.0813,3.0813,3.0813,3.0813,3.0814,3.0814,3.0445,3.0457,3.0489,3.0514,3.0536,3.0559,3.0574,3.0597,3.0619,3.065,3.0665,3.069,3.0718,3.0757,3.0774,3.0793,3.0798,3.0801,3.0802,3.0802,3.0801,3.0797,3.0798,3.0798,3.0799,3.0799,3.0799,0,3.0434,3.0456,3.0479,3.0514,3.0534,3.0549,3.0577,3.0592,3.0615,3.064,3.0662,3.0691,3.0716,3.0744,3.077,3.078,3.0788,3.0786,3.0786,3.0789,3.0794,3.079,3.0779,3.0779,3.0779,3.0779,3.0779,3.0779,3.0431,3.0454,3.0472,3.0506,3.0528,3.0554,3.0569,3.059,3.061,3.0643,3.0664,3.0683,3.071,3.0738,3.0762,3.0769,3.0778,3.0774,3.0784,3.0787,3.0789,3.079,3.0787,3.0776,3.0776,3.0777,3.0777,3.0777]}]]